Weather History for Deer Park, WA

Change the Weather History Date:

Sunday, October 23, 2011

  Actual Average Record
Temperature  
Mean Temperature 45 °F 41 °F  
Max Temperature 59 °F 54 °F 67 °F (2007)
Min Temperature 30 °F 29 °F 21 °F (2008)
Degree Days  
Heating Degree Days 20 24  
Month to date heating degree days 372 450  
Since 1 July heating degree days 720 869  
Cooling Degree Days 0 0  
Month to date cooling degree days 0 0  
Year to date cooling degree days 96 187  
Moisture  
Dew Point 40 °F    
Average Humidity 72    
Maximum Humidity 100    
Minimum Humidity 43    
Precipitation  
Precipitation 0.00 in 0.05 in 0.19 in (2010)
Month to date precipitation 0.93 1.09  
Year to date precipitation 15.83 15.53  
Sea Level Pressure  
Sea Level Pressure 30.07 in    
Wind  
Wind Speed 4 mph (SSW)    
Max Wind Speed 13 mph    
Max Gust Speed 15 mph    
Visibility 9 miles    
Events      
T = Trace of Precipitation, MM = Missing Value Source: NWS Daily Summary

Daily Weather History Graph

Daily Weather History Graph

Search for Another Location

Airport:

Trip Planner

Search our weather history database for the weather conditions in past years. The results will help you decide how hot, cold, wet, or windy it might be!

Date:

Astronomy

Oct. 23, 2011 Rise Set
Actual Time 7:20 AM PDT 5:46 PM PDT
Civil Twilight 6:48 AM PDT 6:18 PM PDT
Nautical Twilight 6:12 AM PDT 6:54 PM PDT
Astronomical Twilight 5:36 AM PDT 7:30 PM PDT
Moon 3:18 AM PDT (10/23) 3:51 PM PDT (10/23)
Length of Visible Light 11h 29m
Length of Day
10h 26m
Waning Crescent, 13% of the Moon is Illuminated
Oct 23
Waning Crescent
Oct 26
New
Nov 2
First Quarter
Nov 10
Full
Nov 18
Last Quarter

Hourly Weather History & Observations

Time (PDT) Temp. Windchill Dew Point Humidity Pressure Visibility Wind Dir Wind Speed Gust Speed Precip Events Conditions
12:53 AM 50.0 °F - 46.0 °F 86% 30.08 in 10.0 mi South 9.2 mph - N/A   Clear
1:53 AM 48.9 °F - 46.0 °F 90% 30.08 in 10.0 mi South 10.4 mph - N/A   Clear
2:53 AM 48.9 °F - 46.0 °F 90% 30.09 in 10.0 mi South 9.2 mph - N/A   Clear
3:53 AM 48.9 °F - 46.0 °F 90% 30.07 in 10.0 mi South 11.5 mph - N/A   Clear
4:53 AM 46.9 °F - 45.0 °F 93% 30.08 in 10.0 mi South 6.9 mph - N/A   Clear
5:53 AM 43.0 °F 41.3 °F 42.1 °F 97% 30.10 in 10.0 mi ENE 3.5 mph - N/A   Clear
6:53 AM 42.1 °F 40.2 °F 41.0 °F 96% 30.10 in 10.0 mi East 3.5 mph - N/A   Clear
7:53 AM 44.1 °F - 43.0 °F 96% 30.11 in 10.0 mi Calm Calm - N/A   Clear
8:53 AM 46.9 °F - 45.0 °F 93% 30.12 in 10.0 mi Calm Calm - N/A   Clear
10:53 AM 50.0 °F - 43.0 °F 77% 30.14 in 10.0 mi South 8.1 mph - N/A   Clear
11:53 AM 53.1 °F - 42.1 °F 66% 30.14 in 10.0 mi SSW 8.1 mph - N/A   Clear
12:53 PM 55.0 °F - 41.0 °F 59% 30.12 in 10.0 mi WSW 6.9 mph - N/A   Clear
1:53 PM 57.0 °F - 39.9 °F 53% 30.10 in 10.0 mi Calm Calm - N/A   Clear
2:53 PM 57.0 °F - 41.0 °F 55% 30.09 in 10.0 mi Calm Calm - N/A   Mostly Cloudy
3:53 PM 57.0 °F - 36.0 °F 45% 30.07 in 10.0 mi SW 8.1 mph - N/A   Clear
5:53 PM 48.9 °F - 39.9 °F 71% 30.07 in 10.0 mi Calm Calm - N/A   Clear
6:53 PM 44.1 °F - 41.0 °F 89% 30.07 in 10.0 mi Calm Calm - N/A   Clear
7:53 PM 43.0 °F - 39.9 °F 89% 30.06 in 10.0 mi Calm Calm - N/A   Clear
8:53 PM 39.9 °F - 37.9 °F 93% 30.06 in 10.0 mi Calm Calm - N/A   Clear
9:53 PM 37.9 °F - 37.0 °F 97% 30.04 in 10.0 mi Calm Calm - N/A   Clear
10:53 PM 37.0 °F - 36.0 °F 96% 30.03 in 10.0 mi Calm Calm - N/A   Clear
11:03 PM 35.6 °F - 35.6 °F 100% 30.00 in 2.5 mi Calm Calm - N/A   Partly Cloudy
11:19 PM 35.6 °F 32.8 °F 33.8 °F 93% 29.99 in 1.2 mi NW 3.5 mph - N/A   Clear
11:25 PM 35.6 °F - 33.8 °F 93% 30.00 in 3.0 mi Calm Calm - N/A   Clear
11:53 PM 33.1 °F 30.0 °F 30.9 °F 92% 30.03 in 8.0 mi WNW 3.5 mph - N/A   Clear